Location: Camp Crooked Creek
(37.9149°N, 85.6607°W)
Time: 03:12:42
(UTC-05:00)

Lacrosse 4 - Visible Passes

Search period start: 17 December 2017 00:00
Search period end: 27 December 2017 00:00
Orbit: 673 x 680 km, 68.0° (Epoch: 25 February)

Date Brightness Start Highest point End Pass type
(mag) Time Alt. Az. Time Alt. Az. Time Alt. Az.
17 Dec 4.4 05:49:13 10° NNE 05:51:05 12° NE 05:52:58 10° ENE visible
18 Dec 3.4 06:22:16 10° N 06:26:30 31° ENE 06:30:42 10° ESE visible
19 Dec 4.5 05:18:27 10° NNE 05:20:05 11° NE 05:21:42 10° ENE visible
19 Dec 1.7 06:56:42 10° NNW 07:01:30 90° E 07:06:16 10° SSE visible
20 Dec 3.4 05:52:15 14° N 05:55:30 29° NE 05:59:40 10° ESE visible
21 Dec 4.6 04:48:32 11° NE 04:49:04 11° NE 04:50:23 10° ENE visible
21 Dec 1.7 06:26:51 17° NNW 06:30:32 85° ENE 06:35:18 10° SSE visible
22 Dec 3.4 05:23:14 24° NNE 05:24:31 28° NE 05:28:36 10° ESE visible
22 Dec 2.6 07:01:33 13° NW 07:05:11 30° WSW 07:09:20 10° S visible
23 Dec 1.7 05:58:00 43° NNW 05:59:33 81° ENE 06:04:19 10° SSE visible
23 Dec 3.9 20:12:28 10° SSW 20:13:40 18° SSW 20:13:40 18° SSW visible
24 Dec 3.8 04:54:32 25° ENE 04:54:32 25° ENE 04:57:32 10° ESE visible
24 Dec 2.5 06:32:52 27° WNW 06:34:14 32° WSW 06:38:26 10° S visible
24 Dec 3.2 19:07:50 10° SSE 19:10:24 22° SE 19:10:24 22° SE visible
24 Dec 4.5 20:47:52 10° WSW 20:48:44 14° WSW 20:48:44 14° WSW visible
25 Dec 2.2 05:29:28 57° SE 05:29:28 57° SE 05:33:20 10° SSE visible
25 Dec 2.0 19:41:31 10° SSW 19:45:25 59° S 19:45:25 59° S visible
26 Dec 4.7 04:26:08 11° ESE 04:26:08 11° ESE 04:26:28 10° ESE visible
26 Dec 2.8 06:04:28 29° SW 06:04:28 29° SW 06:07:31 10° S visible
26 Dec 2.9 18:36:58 10° SSE 18:40:42 23° ESE 18:42:03 20° E visible
26 Dec 3.3 20:16:50 10° SW 20:20:23 33° W 20:20:23 33° W visible
